| time (UTC) | temp F | wind direction | speed MPH | gust MPH | rain 1hr in | rain 24hr in | rain mn in | humidity % | barometer mb |
| 20260506113029 | 43 | 116 | 2.0 | 9.0 | 0.07 | 0.14 | 0.13 | 46 | 1003.2 |
| 20260506111522 | 43 | 115 | 4.0 | 11.0 | 0.12 | 0.13 | 0.12 | 46 | 1002.9 |
| 20260506110020 | 44 | 88 | 1.0 | 10.0 | 0.11 | 0.12 | 0.11 | 46 | 1003.2 |
| 20260506104517 | 44 | 75 | 3.0 | 11.0 | 0.09 | 0.10 | 0.09 | 46 | 1003.0 |
| 20260506103014 | 45 | 124 | 5.0 | 12.0 | 0.06 | 0.07 | 0.06 | 46 | 1003.2 |
| 20260506101513 | 45 | 101 | 5.0 | 11.0 | 0.00 | 0.01 | 0.00 | 45 | 1003.3 |
| 20260506100011 | 45 | 69 | 4.0 | 10.0 | 0.00 | 0.01 | 0.00 | 45 | 1003.4 |
| 20260506094509 | 45 | 123 | 2.0 | 13.0 | 0.00 | 0.01 | 0.00 | 45 | 1002.8 |
| 20260506093005 | 46 | 141 | 3.0 | 7.0 | 0.00 | 0.01 | 0.00 | 45 | 1003.0 |
| 20260506091513 | 46 | 111 | 1.0 | 7.0 | 0.00 | 0.01 | 0.00 | 45 | 1002.8 |
| 20260506090005 | 46 | 130 | 2.0 | 11.0 | 0.00 | 0.01 | 0.00 | 45 | 1002.8 |
| 20260506084502 | 46 | 98 | 4.0 | 10.0 | 0.00 | 0.01 | 0.00 | 44 | 1003.1 |
| 20260506083100 | 47 | 155 | 4.0 | 11.0 | 0.00 | 0.01 | 0.00 | 44 | 1002.9 |
| 20260506081607 | 47 | 89 | 3.0 | 10.0 | 0.00 | 0.01 | 0.00 | 45 | 1002.9 |
| 20260506073059 | 47 | 126 | 2.0 | 5.0 | 0.00 | 0.01 | 0.00 | 45 | 1003.5 |
| 20260506071554 | 47 | 90 | 1.0 | 11.0 | 0.00 | 0.01 | 0.00 | 45 | 1002.9 |
| 20260506061556 | 48 | 148 | 0.0 | 4.0 | 0.00 | 0.01 | 0.00 | 44 | 1002.8 |
| 20260506044543 | 48 | 131 | 1.0 | 5.0 | 0.00 | 0.01 | 0.00 | 45 | 1004.4 |
| 20260506043038 | 48 | 130 | 1.0 | 5.0 | 0.00 | 0.01 | 0.00 | 46 | 1004.5 |
| 20260506041529 | 47 | 126 | 0.0 | 4.0 | 0.00 | 0.01 | 0.00 | 46 | 1004.6 |
| 20260506040024 | 48 | 122 | 0.0 | 4.0 | 0.00 | 0.01 | 0.01 | 46 | 1004.4 |
| 20260506034526 | 48 | 99 | 1.0 | 4.0 | 0.00 | 0.01 | 0.01 | 46 | 1004.4 |
| 20260506033022 | 47 | 93 | 0.0 | 4.0 | 0.00 | 0.01 | 0.01 | 46 | 1004.8 |
| 20260506031520 | 47 | 93 | 0.0 | 4.0 | 0.00 | 0.01 | 0.01 | 47 | 1004.7 |
| 20260506030024 | 48 | 358 | 1.0 | 4.0 | 0.00 | 0.01 | 0.01 | 47 | 1004.7 |
| 20260506024537 | 48 | 358 | 0.0 | 3.0 | 0.00 | 0.01 | 0.01 | 47 | 1004.6 |
| 20260506023016 | 48 | 358 | 0.0 | 3.0 | 0.00 | 0.01 | 0.01 | 48 | 1004.7 |
| 20260506021516 | 48 | 358 | 0.0 | 3.0 | 0.00 | 0.01 | 0.01 | 48 | 1005.1 |
| 20260506020016 | 48 | 358 | 0.0 | 2.0 | 0.00 | 0.01 | 0.01 | 48 | 1005.2 |
| 20260506014513 | 48 | 358 | 1.0 | 3.0 | 0.00 | 0.01 | 0.01 | 48 | 1005.0 |
| 20260506013013 | 48 | 358 | 0.0 | 3.0 | 0.00 | 0.01 | 0.01 | 48 | 1004.8 |
| 20260506011508 | 49 | 358 | 0.0 | 2.0 | 0.00 | 0.01 | 0.01 | 48 | 1004.4 |
| 20260506010008 | 49 | 358 | 0.0 | 2.0 | 0.00 | 0.01 | 0.01 | 49 | 1004.2 |
| 20260506004507 | 49 | 358 | 0.0 | 2.0 | 0.00 | 0.01 | 0.01 | 49 | 1004.4 |
| 20260506003005 | 49 | 357 | 1.0 | 4.0 | 0.00 | 0.01 | 0.01 | 50 | 1003.9 |
| 20260506001504 | 49 | 356 | 0.0 | 5.0 | 0.00 | 0.01 | 0.01 | 52 | 1004.1 |
| 20260506000004 | 49 | 9 | 0.0 | 4.0 | 0.00 | 0.01 | 0.01 | 54 | 1003.8 |
| 20260505234502 | 50 | 9 | 2.0 | 4.0 | 0.01 | 0.01 | 0.01 | 55 | 1004.1 |
| 20260505233058 | 50 | 5 | 4.0 | 12.0 | 0.01 | 0.01 | 0.01 | 56 | 1003.8 |
| 20260505231606 | 52 | 348 | 6.0 | 10.0 | 0.01 | 0.01 | 0.01 | 59 | 1003.8 |
| 20260505230053 | 53 | 319 | 9.0 | 15.0 | 0.01 | 0.01 | 0.01 | 61 | 1003.8 |
| 20260505224549 | 55 | 350 | 12.0 | 20.0 | 0.00 | 0.00 | 0.00 | 67 | 1003.4 |
| 20260505223042 | 57 | 334 | 13.0 | 18.0 | 0.00 | 0.00 | 0.00 | 69 | 1003.1 |
| 20260505221540 | 58 | 329 | 11.0 | 23.0 | 0.00 | 0.00 | 0.00 | 70 | 1002.7 |
| 20260505220038 | 59 | 324 | 12.0 | 22.0 | 0.00 | 0.00 | 0.00 | 71 | 1002.2 |
| 20260505214556 | 61 | 326 | 16.0 | 24.0 | 0.00 | 0.00 | 0.00 | 70 | 1001.8 |
| 20260505213030 | 62 | 313 | 11.0 | 22.0 | 0.00 | 0.00 | 0.00 | 70 | 1001.5 |
| 20260505211533 | 63 | 313 | 13.0 | 20.0 | 0.00 | 0.00 | 0.00 | 70 | 1001.3 |
| 20260505210028 | 64 | 315 | 14.0 | 19.0 | 0.00 | 0.00 | 0.00 | 69 | 1001.2 |
| 20260505204529 | 64 | 329 | 10.0 | 20.0 | 0.00 | 0.00 | 0.00 | 68 | 1001.1 |
| 20260505203027 | 64 | 310 | 7.0 | 16.0 | 0.00 | 0.00 | 0.00 | 70 | 1000.9 |
| 20260505201527 | 64 | 303 | 8.0 | 16.0 | 0.00 | 0.00 | 0.00 | 68 | 1001.0 |
| 20260505200030 | 63 | 310 | 10.0 | 18.0 | 0.00 | 0.00 | 0.00 | 69 | 1001.2 |
| 20260505194524 | 64 | 319 | 12.0 | 18.0 | 0.00 | 0.00 | 0.00 | 69 | 1001.1 |
| 20260505193022 | 65 | 297 | 12.0 | 19.0 | 0.00 | 0.00 | 0.00 | 69 | 1001.0 |
| 20260505191522 | 66 | 334 | 13.0 | 20.0 | 0.00 | 0.00 | 0.00 | 67 | 1000.9 |
| 20260505190026 | 67 | 326 | 12.0 | 24.0 | 0.00 | 0.00 | 0.00 | 65 | 1000.8 |
| 20260505184520 | 69 | 304 | 10.0 | 24.0 | 0.00 | 0.00 | 0.00 | 61 | 1000.3 |
| 20260505183026 | 71 | 309 | 13.0 | 22.0 | 0.00 | 0.00 | 0.00 | 62 | 1000.1 |
| 20260505181519 | 67 | 304 | 14.0 | 22.0 | 0.00 | 0.00 | 0.00 | 63 | 1000.4 |
| 20260505180016 | 68 | 303 | 15.0 | 31.0 | 0.00 | 0.00 | 0.00 | 60 | 1000.4 |
| 20260505174514 | 70 | 285 | 11.0 | 23.0 | 0.00 | 0.00 | 0.00 | 59 | 1000.1 |
| 20260505173012 | 70 | 258 | 12.0 | 25.0 | 0.00 | 0.00 | 0.00 | 59 | 999.9 |
| 20260505171511 | 68 | 301 | 14.0 | 35.0 | 0.00 | 0.00 | 0.00 | 61 | 999.8 |
| 20260505170013 | 66 | 309 | 13.0 | 31.0 | 0.00 | 0.00 | 0.00 | 64 | 1000.2 |
| 20260505164511 | 66 | 266 | 19.0 | 32.0 | 0.00 | 0.00 | 0.00 | 62 | 1000.4 |
| 20260505163015 | 67 | 276 | 18.0 | 39.0 | 0.00 | 0.00 | 0.00 | 60 | 1000.2 |
| 20260505161507 | 67 | 294 | 16.0 | 29.0 | 0.00 | 0.00 | 0.00 | 59 | 1000.0 |
| 20260505153004 | 69 | 281 | 19.0 | 29.0 | 0.00 | 0.00 | 0.00 | 59 | 999.1 |
| 20260505151502 | 69 | 223 | 17.0 | 31.0 | 0.00 | 0.00 | 0.00 | 60 | 999.1 |
| 20260505140113 | 67 | 249 | 12.0 | 23.0 | 0.00 | 0.00 | 0.00 | 63 | 999.2 |
| 20260505124547 | 65 | 239 | 13.0 | 23.0 | 0.00 | 0.00 | 0.00 | 65 | 999.0 |
| 20260505123050 | 65 | 242 | 14.0 | 25.0 | 0.00 | 0.00 | 0.00 | 65 | 998.8 |
| 20260505121542 | 63 | 244 | 11.0 | 25.0 | 0.00 | 0.00 | 0.00 | 66 | 999.0 |
| 20260505120048 | 63 | 219 | 13.0 | 25.0 | 0.00 | 0.00 | 0.00 | 66 | 999.0 |
| 20260505114545 | 63 | 252 | 18.0 | 25.0 | 0.00 | 0.00 | 0.00 | 66 | 999.0 |